FW5799 Weather Reports


time (UTC)temp
C
wind
direction
speed
KPH
gust
KPH
rain 1hr
cm
rain 24hr
cm
rain mn
cm
humidity
%
barometer
mb
20260507051556 6 0 0.0 0.0 0.00 0.00 0.00 93 1015.3
20260507050058 6 0 0.0 0.0 0.00 0.00 0.00 93 1015.2
20260507044556 6 0 0.0 0.0 0.00 0.00 0.00 93 1015.2
20260507043101 6 0 0.0 4.8 0.00 0.00 0.00 93 1015.0
20260507041556 6 0 0.0 1.6 0.00 0.00 0.00 93 1014.8
20260507040057 6 360 0.0 4.8 0.00 0.00 0.00 93 1014.6
20260507034556 6 0 0.0 3.2 0.00 0.00 0.00 92 1014.5
20260507033058 6 0 0.0 3.2 0.00 0.00 0.00 92 1014.6
20260507031557 6 0 0.0 3.2 0.00 0.00 0.00 92 1014.5
20260507030059 6 0 0.0 3.2 0.00 0.00 0.00 92 1014.4
20260507024625 6 0 0.0 1.6 0.00 0.00 0.00 92 1014.4
20260507023058 6 0 0.0 3.2 0.00 0.00 0.00 92 1014.4
20260507021555 6 0 0.0 1.6 0.00 0.00 0.00 92 1014.2
20260507020109 6 0 0.0 3.2 0.00 0.00 0.00 92 1014.1
20260507014607 6 0 0.0 1.6 0.00 0.00 0.00 92 1014.0
20260507013100 6 0 0.0 1.6 0.00 0.00 0.00 92 1014.1
20260507011603 6 0 0.0 4.8 0.00 0.00 0.00 91 1014.0
20260507010058 6 360 0.0 3.2 0.00 0.00 0.00 91 1013.8
20260507004556 6 0 0.0 3.2 0.00 0.00 0.00 90 1013.8
20260507003057 7 0 0.0 6.4 0.00 0.00 0.00 89 1013.7
20260507001601 7 360 0.0 6.4 0.00 0.00 0.00 88 1013.7
20260507000059 7 360 1.6 6.4 0.00 0.00 0.00 87 1013.6
20260506234605 8 0 1.6 8.0 0.00 0.00 0.00 86 1013.5
20260506233101 8 0 1.6 9.7 0.00 0.00 0.00 85 1013.6
20260506231559 8 360 1.6 8.0 0.00 0.00 0.00 84 1013.6
20260506230100 8 360 0.0 6.4 0.00 0.00 0.00 84 1013.6
20260506224556 8 360 1.6 9.7 0.00 0.00 0.00 83 1013.5
20260506223058 9 360 1.6 8.0 0.00 0.00 0.00 82 1013.5
20260506221558 9 360 3.2 8.0 0.00 0.00 0.00 82 1013.5
20260506220057 9 0 1.6 12.9 0.00 0.00 0.00 83 1013.4
20260506214553 9 0 1.6 6.4 0.00 0.00 0.00 84 1013.3
20260506213118 9 0 0.0 6.4 0.00 0.00 0.00 84 1013.1
20260506211608 9 0 0.0 4.8 0.00 0.00 0.00 85 1013.0
20260506204601 10 0 0.0 1.6 0.00 0.00 0.00 85 1012.7
20260506203102 10 0 0.0 0.0 0.00 0.00 0.00 84 1012.8
20260506201609 10 0 0.0 1.6 0.00 0.00 0.00 83 1012.6
20260506194610 10 0 0.0 0.0 0.00 0.00 0.00 83 1012.3
20260506193057 10 0 0.0 1.6 0.00 0.00 0.00 81 1012.2
20260506191610 10 0 0.0 3.2 0.00 0.00 0.00 81 1012.0
20260506190103 10 0 0.0 1.6 0.00 0.00 0.00 80 1011.8
20260506184607 10 360 0.0 3.2 0.00 0.00 0.00 78 1011.7
20260506183103 10 0 0.0 3.2 0.00 0.00 0.00 77 1011.6
20260506181556 11 0 0.0 4.8 0.00 0.00 0.00 77 1011.4
20260506180058 11 0 0.0 4.8 0.00 0.00 0.00 75 1011.3
20260506174601 11 0 0.0 1.6 0.00 0.00 0.00 76 1011.2
20260506173103 11 0 1.6 8.0 0.00 0.00 0.00 75 1010.9
20260506171602 11 0 0.0 4.8 0.00 0.00 0.00 76 1010.9
20260506170116 11 0 0.0 8.0 0.00 0.00 0.00 77 1010.8
20260506164601 11 0 0.0 4.8 0.00 0.00 0.00 78 1010.9
20260506163111 11 0 0.0 4.8 0.00 0.00 0.00 78 1010.8
20260506161559 10 0 3.2 12.9 0.00 0.00 0.00 77 1010.8
20260506160100 11 0 1.6 6.4 0.00 0.00 0.00 80 1010.6
20260506154607 11 360 1.6 12.9 0.00 0.00 0.00 72 1010.7
20260506153104 11 360 1.6 8.0 0.00 0.00 0.00 70 1010.7
20260506151607 11 360 3.2 16.1 0.00 0.00 0.00 70 1010.6
20260506150103 11 360 1.6 9.7 0.00 0.00 0.00 71 1010.5
20260506144607 11 360 0.0 14.5 0.00 0.00 0.00 73 1010.4
20260506143109 11 0 1.6 12.9 0.00 0.00 0.00 76 1010.4
20260506141558 11 360 1.6 12.9 0.00 0.00 0.00 77 1010.4
20260506140058 11 360 3.2 12.9 0.00 0.00 0.00 78 1010.4
20260506134556 11 360 3.2 20.9 0.00 0.00 0.00 79 1010.4
20260506133058 11 360 4.8 19.3 0.00 0.00 0.00 77 1010.4
20260506131603 11 360 1.6 12.9 0.00 0.00 0.00 75 1010.3
20260506124556 11 360 3.2 17.7 0.00 0.00 0.00 73 1010.0
20260506123058 11 0 1.6 8.0 0.00 0.00 0.00 71 1009.9
20260506121558 11 360 3.2 16.1 0.00 0.00 0.00 72 1009.9
20260506120056 11 360 1.6 12.9 0.00 0.00 0.00 71 1009.9
20260506114607 11 360 4.8 14.5 0.00 0.00 0.00 71 1009.9
20260506113057 11 360 3.2 16.1 0.00 0.00 0.00 69 1009.8
20260506111602 11 360 3.2 16.1 0.00 0.00 0.00 69 1009.7
20260506110058 11 360 4.8 16.1 0.00 0.00 0.00 70 1009.6
20260506104559 11 360 1.6 9.7 0.00 0.00 0.00 69 1009.7
20260506103117 11 360 3.2 12.9 0.00 0.00 0.00 71 1009.6
20260506101557 11 360 1.6 16.1 0.00 0.00 0.00 72 1009.5
20260506100057 11 360 4.8 20.9 0.00 0.00 0.00 72 1009.5
20260506094606 11 360 3.2 12.9 0.00 0.00 0.00 73 1009.5
20260506093056 11 360 1.6 9.7 0.00 0.00 0.00 73 1009.4
20260506091607 10 360 1.6 14.5 0.00 0.00 0.00 76 1009.3
20260506090100 10 360 3.2 12.9 0.00 0.00 0.00 75 1009.2
20260506084614 10 360 3.2 16.1 0.00 0.00 0.00 76 1009.2
20260506083057 10 360 1.6 8.0 0.00 0.00 0.00 76 1009.2
20260506081607 10 0 0.0 14.5 0.00 0.00 0.00 79 1009.1
20260506073102 10 55 1.6 12.9 0.00 0.00 0.00 85 1008.8
20260506071559 10 16 3.2 12.9 0.00 0.00 0.00 88 1008.6
20260506061601 8 325 0.0 6.4 0.00 0.00 0.00 93 1008.6